Location: Wagman Observatory
(40.6260°N, 79.8130°W)
Time: 01:22:45
(UTC-04:00)

Daily predictions for brighter satellites

Satellite Brightness Start Highest point End
(mag) Time Altitude Azimuth Time Altitude Azimuth Time Altitude Azimuth
Cosmos 2237 Rocket 3.4 00:12:24 39° NNW 00:12:24 39° NNW 00:16:21 10° NNE
COSMOS 2455 3.8 00:05:45 10° NNW 00:10:05 42° NNE 00:10:05 42° NNE
Cosmos 2369 Rocket 4.5 00:10:16 10° NNE 00:13:25 15° NE 00:13:27 15° NE
CENTAUR R/B 3.1 00:23:18 10° NW 00:30:30 76° NNW 00:30:30 76° NNW
ATLAS CENTAUR R/B 4.0 00:23:22 10° NW 00:33:12 41° NNE 00:33:12 41° NNE
USA 215 4.5 00:46:20 31° NE 00:47:58 35° NNE 00:53:47 10° NW
Cosmos 2278 Rocket 4.4 00:46:31 10° NW 00:48:29 18° WNW 00:48:29 18° WNW
CZ-2C R/B 4.3 01:01:32 10° N 01:04:25 31° NNW 01:04:25 31° NNW
SL-16 R/B 3.9 01:21:36 28° NNW 01:21:36 28° NNW 01:25:02 10° N
Mayak 1.9 01:21:17 10° N 01:21:40 12° N 01:21:40 12° N
Cosmos 1943 Rocket 3.9 01:29:47 10° N 01:33:00 27° NNE 01:33:00 27° NNE
Cosmos 2369 Rocket 3.9 01:52:34 10° NNW 01:55:12 29° NNW 01:55:12 29° NNW
BREEZE-M DEB (TANK) 4.4 02:11:46 46° NE 02:11:46 46° NE 02:20:48 10° ENE
SL-16 R/B 4.3 02:19:37 21° E 02:21:37 24° ENE 02:26:27 10° N
USA 215 4.3 02:33:40 35° NW 02:33:40 35° NW 02:37:08 10° NW
ADEOS Rocket 3.8 02:35:40 10° NNE 02:39:30 41° NE 02:39:30 41° NE
Resurs 1-4 Rocket 3.3 03:00:22 10° NNE 03:04:34 35° E 03:04:34 35° E
BREEZE-M DEB (TANK) 4.4 03:06:14 53° NNW 03:06:32 53° NNW 03:19:20 10° ENE
ARIANE 5 R/B 3.9 03:02:19 10° NNE 03:06:37 31° E 03:06:37 31° E
COSMOS 2406 3.7 03:14:18 56° ENE 03:14:18 56° ENE 03:19:02 10° NNE
Cosmos 1943 Rocket 4.3 03:13:31 10° NW 03:14:29 15° NW 03:14:29 15° NW
CZ-2D R/B 2.6 03:20:53 10° NNE 03:25:45 55° E 03:25:45 55° E
Cosmos 2285 Rocket 4.1 03:26:51 67° ESE 03:27:06 68° ESE 03:33:27 10° NNE
Cosmos 540 Rocket 4.3 03:31:10 43° NNW 03:31:10 43° NNW 03:34:54 10° N
IRS-1D 3.7 03:32:20 10° NNE 03:37:11 68° ENE 03:37:11 68° ENE
BREEZE M DEB (TANK) 3.4 03:40:17 54° ENE 03:40:17 54° ENE 03:47:21 10° ESE
CZ-3A R/B 3.4 03:36:19 10° NW 03:50:25 - SSE 03:43:25 55° W
Spot 4 Rocket 4.0 03:41:41 10° NNE 03:46:34 80° NNE 03:46:34 80° NNE
ADEOS II 4.5 03:46:47 10° NE 03:50:08 17° E 03:53:27 10° SE
Cosmos 2123 Rocket 4.0 03:45:36 10° NNW 03:51:28 60° W 03:51:28 60° W
Lacrosse 5 3.4 03:49:25 10° NNW 03:54:04 34° NE 03:58:41 10° E
Cosmos 1633 Rocket 3.5 03:51:44 10° N 03:55:55 57° ENE 03:55:55 57° ENE
Cosmos 2082 Rocket 4.0 03:53:58 17° SE 03:56:41 24° E 04:01:03 10° NE
ADEOS 3.4 03:53:49 10° NNE 03:59:04 83° ESE 03:59:25 76° SSE
Cosmos 1934 Rocket 4.5 04:00:37 41° WNW 04:00:37 41° WNW 04:06:05 10° N
Cosmos 1726 3.5 04:01:54 36° N 04:01:54 36° N 04:04:13 10° N
Cosmos 2228 Rocket 4.1 04:02:17 37° ESE 04:03:08 41° E 04:07:18 10° NNE
SL-16 R/B 2.5 04:04:43 56° WSW 04:04:48 56° W 04:10:55 10° NNW
USA 229 DEB 4.0 04:06:59 10° NW 04:13:48 47° WSW 04:14:06 47° WSW
USA 229 3.9 04:07:05 10° NW 04:13:55 48° WSW 04:14:19 47° SW
Cosmos 1315 Rocket 3.8 04:11:08 10° NNW 04:13:44 38° NNW 04:13:44 38° NNW
Cosmos 1328 Rocket 3.6 04:17:08 65° SE 04:17:33 71° E 04:21:54 10° NNE
NOSS 3-1 (A) 4.2 04:11:23 10° NNW 04:19:04 77° NE 04:27:32 10° SE
Cosmos 2221 4.3 04:20:44 21° NW 04:20:44 21° NW 04:22:56 10° NNW
Cosmos 1605 Rocket 4.4 04:19:33 42° W 04:20:22 44° WNW 04:26:28 10° N
Meteor 2-10 4.1 04:22:32 44° S 04:24:27 90° ESE 04:30:06 10° N
ADEOS Rocket 4.3 04:22:22 10° NNW 04:26:12 20° WNW 04:26:26 20° WNW
Cosmos 1892 4.3 04:24:00 10° N 04:27:33 35° ENE 04:31:06 10° SE
Cosmos 2369 4.2 04:22:11 10° NNW 04:27:47 61° ENE 04:33:21 10° SE
Cosmos 1538 Rocket 4.0 04:26:52 54° SW 04:27:57 69° WNW 04:33:20 10° NNE
In-Cosmos 22 Rocket 4.0 04:25:33 10° N 04:30:57 88° E 04:34:27 22° S
Cosmos 1666 Rocket 4.2 04:27:31 10° NNW 04:31:02 41° WNW 04:31:02 41° WNW
Cosmos 2061 Rocket 4.1 04:28:51 26° S 04:32:42 83° E 04:39:09 10° N
OE (NEXTSAT) 4.5 04:33:45 74° NNE 04:33:45 74° NNE 04:37:10 10° ENE
UNKNOWN OBJECT B 2.9 04:31:44 10° N 04:35:45 58° WNW 04:35:51 58° W
Cosmos 923 Rocket 4.3 04:34:15 30° S 04:36:45 64° ESE 04:41:57 10° NNE
Cosmos 2016 Rocket 4.1 04:34:36 19° S 04:39:03 73° E 04:45:09 10° N
Cosmos 1933 Rocket 3.6 04:36:08 10° N 04:40:36 79° E 04:43:42 20° SSE
BREEZE-M DEB (TANK) 3.5 04:38:34 22° NW 04:40:45 56° NNE 04:49:06 10° E
Hubble Space Telescope 3.0 04:44:31 13° SSE 04:44:31 13° SSE 04:45:30 10° SE
Cosmos 1151 Rocket 3.0 04:41:22 35° S 04:43:06 77° E 04:47:23 10° N
Resurs 1-4 Rocket 3.1 04:40:30 10° N 04:44:53 28° WNW 04:45:39 26° W
ARIANE 5 R/B 3.4 04:41:27 10° N 04:46:01 32° WNW 04:46:56 30° W
NOSS 3-1 (C) 4.1 04:39:27 10° NW 04:47:02 61° WSW 04:55:18 10° SSE
Meteor 1-27 4.3 04:44:07 19° S 04:48:15 76° E 04:53:51 10° NNE
Cosmos 1833 Rocket 3.0 04:45:26 23° S 04:48:58 65° ESE 04:54:35 10° NNE
CZ-2D R/B 3.8 04:47:49 10° N 04:51:36 42° WNW 04:52:00 41° W
Cosmos 1725 Rocket 4.3 04:47:51 10° S 04:53:58 68° E 05:00:06 10° NNE
Cosmos 1680 Rocket 3.7 04:51:05 21° S 04:54:35 71° ESE 04:59:54 10° NNE
Cosmos 2100 Rocket 4.3 04:56:35 27° SW 04:59:52 51° WNW 05:06:04 10° N
Cosmos 1802 Rocket 4.0 04:57:19 23° SSW 05:01:17 63° W 05:07:33 10° N
Cosmos 2112 Rocket 4.2 04:58:05 17° S 05:02:10 71° ESE 05:07:30 10° NNE
PSLV R/B 3.4 05:02:49 46° SSW 05:02:49 46° SSW 05:05:52 10° SE
Cosmos 1300 4.2 05:03:53 21° WNW 05:03:53 21° WNW 05:06:34 10° NNW
CZ-4B R/B 3.6 04:59:45 10° NNE 05:04:13 61° E 05:08:42 10° S
Okean O Rocket 2.5 05:00:04 10° NNE 05:04:21 48° E 05:08:35 10° S
CZ-2D R/B 3.6 05:02:04 10° NNW 05:05:44 19° WNW 05:07:04 17° W
Cosmos 1980 Rocket 3.6 05:01:14 10° N 05:06:31 40° ENE 05:11:46 10° SE
Tiangong 2 1.0 05:08:15 45° WSW 05:09:08 88° S 05:12:22 10° ENE
Shenzhou-11 Module 2.1 05:14:00 34° W 05:15:09 70° NNW 05:18:14 10° ENE
Cosmos 2278 3.7 05:10:53 10° NNW 05:16:22 55° WSW 05:21:51 10° S
Cosmos 1455 2.1 05:16:37 20° SSW 05:19:04 66° W 05:22:48 10° N
Cosmos 1697 Rocket 2.7 05:15:24 10° NNW 05:21:06 88° ENE 05:26:46 10° SSE
Tsikada Rocket 4.0 05:15:43 10° N 05:22:04 84° W 05:28:27 10° S
Cosmos 1470 Rocket 4.4 05:20:38 10° NNW 05:24:20 28° W 05:26:15 20° SW
COSMOS 2487 3.3 05:28:16 22° WSW 05:29:53 34° WNW 05:33:10 10° N
ADEOS II 2.2 05:25:03 10° N 05:30:13 58° WNW 05:35:21 10° SSW
CZ-4B DEB 4.2 05:30:04 10° NNE 05:35:38 88° ESE 05:41:08 10° SSW
Lacrosse 5 2.1 05:32:18 10° NW 05:37:09 46° SW 05:41:58 10° SSE
Cosmos 2082 Rocket 2.6 05:35:51 14° SW 05:40:23 47° WNW 05:45:51 10° NNE
Meteor PRIRODA 4.0 05:38:37 10° NNE 05:42:16 65° E 05:45:53 10° S
Cosmos 2084 3.3 05:40:10 14° SW 05:43:30 62° NW 05:47:20 10° NNE
Cosmos 1869 Rocket 3.5 05:42:08 10° NNW 05:46:36 69° W 05:50:59 10° S
OAO 2 Rocket 4.0 05:46:15 13° WSW 05:50:20 40° S 05:54:59 10° ESE
Lacrosse 4 Rocket 3.4 05:48:33 10° S 05:52:27 31° ESE 05:56:26 10° NE
CZ-4B R/B 3.2 05:53:11 10° N 05:58:34 63° WNW 06:03:50 10° SSW
Cosmos 2242 Rocket 4.3 05:54:32 10° S 05:58:56 58° E 06:03:18 10° NNE
Cosmos 2360 4.2 05:54:30 10° NNW 06:00:14 87° WSW 06:05:55 10° SSE
Timation 2 Rocket 3.9 05:55:38 10° SSW 06:01:37 74° WNW 06:07:47 10° NNE
Cosmos 1869 3.7 05:59:12 10° SSW 06:02:59 43° W 06:06:49 10° N
MTI 3.8 05:59:47 10° SSE 06:03:00 87° ENE 06:06:13 10° NNW
PSLV R/B 4.4 05:59:09 10° N 06:03:01 32° WNW 06:06:51 10° SW
ATLAS 2AS CENTAUR R/B 3.3 05:55:45 10° NNW 06:03:48 78° NE 06:11:11 10° SE
Landsat 4 4.1 06:00:36 10° S 06:04:08 41° W 06:07:42 10° NNW
Cosmos 1408 2.9 06:03:15 10° NNW 06:06:43 44° W 06:10:08 10° SSW
Meteor 1-31 Rocket 2.8 06:03:41 10° N 06:07:37 73° WNW 06:11:33 10° SSW
Cosmos 1825 2.5 06:07:06 10° NNW 06:10:44 44° W 06:14:22 10° SSW
Cosmos 1371 Rocket 4.2 06:06:04 10° NNW 06:11:08 51° WSW 06:16:14 10° S
